Zurück zum Katalog

STARLINK-35764

AktivKommunikationVLEO
NORAD 67109·PAYLOAD·🇺🇸 United States

Gestartet Dec 15, 2025 von Cape Canaveral Space Force Station

Loading…

Nächste Überflüge (nächste 24 Stunden)

TLE

AktuellSource: CelesTrak SupGP

Epoche: Sep 14, 2026, 21:40 UTC

1 67109C 25299H   26257.90326389 -.00025996  00000+0 -94143-3 0  2575
2 67109  43.0015 180.2898 0001122 264.0241 162.1461 15.27596204    12

Verfolge STARLINK-35764 in Echtzeit mit AllMySat

Download on the App Store